Change the Weather History Date:

Wednesday, February 26, 2014

  Actual Average Record
Temperature  
Mean Temperature 0 °F -  
Max Temperature 13 °F 31 °F 13 °F (2014)
Min Temperature -12 °F 12 °F -14 °F (2015)
Degree Days  
Heating Degree Days 64    
Moisture  
Dew Point -11 °F    
Average Humidity 61    
Maximum Humidity 75    
Minimum Humidity 49    
Precipitation  
Precipitation 0.00 in - - ()
Sea Level Pressure  
Sea Level Pressure 29.80 in    
Wind  
Wind Speed 14 mph (West)    
Max Wind Speed 28 mph    
Max Gust Speed 37 mph    
Visibility 8 miles    
Events Snow    
Averages and records for this station are not official NWS values.
T = Trace of Precipitation, MM = Missing Value Source: NWS Daily Summary

Daily Weather History Graph

Daily Weather History Graph

Search for Another Location

Airport or City:

Trip Planner

Search our weather history database for the weather conditions in past years. The results will help you decide how hot, cold, wet, or windy it might be!

Date:

Astronomy

Feb. 26, 2014 Rise Set
Actual Time 6:53 AM CST 5:49 PM CST
Civil Twilight 6:22 AM CST 6:20 PM CST
Nautical Twilight 5:47 AM CST 6:55 PM CST
Astronomical Twilight 5:12 AM CST 7:30 PM CST
Moon 4:47 AM CST (2/26) 2:58 PM CST (2/26)
Length of Visible Light 11h 57m
Length of Day
10h 56m
Waning Crescent, 10% of the Moon is Illuminated
Feb 26
Waning Crescent
Mar 1
New
Mar 8
First Quarter
Mar 16
Full
Mar 23
Last Quarter

Hourly Weather History & Observations

Time (CST) Temp. Windchill Dew Point Humidity Pressure Visibility Wind Dir Wind Speed Gust Speed Precip Events Conditions
12:15 AM -8.1 °F -28.2 °F -17.9 °F 63% 30.23 in 10.0 mi West 12.7 mph - N/A   Clear
12:35 AM -8.5 °F -25.7 °F -18.2 °F 62% 30.22 in 10.0 mi West 9.2 mph - N/A   Clear
12:55 AM -9.2 °F -28.7 °F -18.8 °F 63% 30.22 in 10.0 mi West 11.5 mph 16.1 mph N/A   Clear
1:15 AM -9.6 °F -29.1 °F -18.9 °F 63% 30.22 in 10.0 mi WSW 11.5 mph - N/A   Clear
1:35 AM -10.1 °F -26.5 °F -19.3 °F 64% 30.21 in 10.0 mi SW 8.1 mph - N/A   Clear
1:55 AM -10.8 °F -28.6 °F -19.8 °F 64% 30.20 in 10.0 mi SSW 9.2 mph - N/A   Scattered Clouds
2:15 AM -11.6 °F -29.5 °F -19.7 °F 67% 30.19 in 10.0 mi SSW 9.2 mph - N/A   Scattered Clouds
2:35 AM -11.6 °F -30.6 °F -19.7 °F 67% 30.18 in 10.0 mi SSW 10.4 mph - N/A   Mostly Cloudy
2:55 AM -11.6 °F -30.6 °F -19.7 °F 67% 30.16 in 10.0 mi SSW 10.4 mph - N/A   Scattered Clouds
3:15 AM -11.7 °F -30.8 °F -19.8 °F 67% 30.14 in 10.0 mi SSW 10.4 mph - N/A   Mostly Cloudy
3:35 AM -12.1 °F -30.1 °F -19.7 °F 69% 30.13 in 10.0 mi SSW 9.2 mph - N/A   Overcast
3:55 AM -11.6 °F -29.5 °F -19.3 °F 69% 30.11 in 10.0 mi SSW 9.2 mph - N/A   Overcast
4:15 AM -11.4 °F -28.0 °F -19.1 °F 69% 30.09 in 10.0 mi SW 8.1 mph - N/A   Mostly Cloudy
4:35 AM -11.2 °F -30.1 °F -18.8 °F 69% 30.07 in 10.0 mi SW 10.4 mph - N/A   Overcast
4:55 AM -10.7 °F -30.5 °F -18.4 °F 69% 30.04 in 10.0 mi SW 11.5 mph - N/A   Overcast
5:15 AM -10.3 °F -30.0 °F -17.5 °F 71% 30.02 in 10.0 mi WSW 11.5 mph - N/A   Overcast
5:35 AM -9.6 °F -28.1 °F -16.8 °F 71% 30.01 in 10.0 mi SW 10.4 mph - N/A   Overcast
5:55 AM -9.4 °F -28.9 °F -16.8 °F 70% 29.98 in 10.0 mi SW 11.5 mph 16.1 mph N/A   Mostly Cloudy
6:15 AM -8.9 °F -28.2 °F -16.8 °F 68% 29.95 in 10.0 mi WSW 11.5 mph - N/A   Overcast
6:35 AM -8.5 °F -28.6 °F -16.6 °F 68% 29.94 in 10.0 mi WSW 12.7 mph - N/A   Overcast
6:55 AM -8.0 °F -29.6 °F -16.1 °F 68% 29.91 in 10.0 mi WSW 15.0 mph - N/A   Overcast
7:15 AM -7.4 °F -29.6 °F -16.1 °F 66% 29.90 in 10.0 mi WSW 16.1 mph 21.9 mph N/A   Overcast
7:35 AM -7.1 °F -29.8 °F -16.1 °F 65% 29.87 in 10.0 mi WSW 17.3 mph 20.7 mph N/A   Overcast
7:55 AM -7.1 °F -28.4 °F -16.1 °F 65% 29.86 in 10.0 mi SW 15.0 mph 24.2 mph N/A   Overcast
8:15 AM -6.9 °F -30.2 °F -15.9 °F 65% 29.84 in 10.0 mi SW 18.4 mph 21.9 mph N/A   Overcast
8:35 AM -6.5 °F -28.4 °F -15.5 °F 65% 29.82 in 10.0 mi SW 16.1 mph 20.7 mph N/A   Overcast
8:55 AM -5.3 °F -28.1 °F -15.0 °F 63% 29.80 in 10.0 mi SW 18.4 mph - N/A   Overcast
9:15 AM -4.0 °F -26.4 °F -14.3 °F 61% 29.77 in 10.0 mi SW 18.4 mph 24.2 mph N/A   Mostly Cloudy
9:35 AM -1.8 °F -25.2 °F -12.8 °F 60% 29.73 in 7.0 mi SW 21.9 mph 29.9 mph N/A   Scattered Clouds
9:55 AM -1.5 °F -26.2 °F -11.7 °F 62% 29.70 in 7.0 mi SW 25.3 mph 31.1 mph N/A   Mostly Cloudy
10:15 AM 0.1 °F -23.6 °F -10.1 °F 62% 29.67 in 5.0 mi SW 24.2 mph 29.9 mph N/A   Haze
10:35 AM 1.4 °F -21.9 °F -8.9 °F 62% 29.60 in 5.0 mi SW 24.2 mph 33.4 mph N/A   Haze
10:55 AM 4.1 °F -14.1 °F -7.8 °F 58% 29.62 in 10.0 mi SW 15.0 mph 27.6 mph N/A   Overcast
11:15 AM 5.9 °F -14.5 °F -6.7 °F 56% 29.62 in 10.0 mi West 20.7 mph 28.8 mph N/A   Overcast
11:35 AM 6.8 °F -10.7 °F -6.5 °F 55% 29.61 in 10.0 mi West 15.0 mph 24.2 mph N/A   Overcast
11:55 AM 8.6 °F -9.5 °F -4.9 °F 54% 29.59 in 10.0 mi West 17.3 mph 20.7 mph N/A   Overcast
12:15 PM 9.1 °F -9.3 °F -4.9 °F 53% 29.57 in 10.0 mi WSW 18.4 mph 27.6 mph N/A   Scattered Clouds
12:35 PM 11.1 °F -8.1 °F -3.8 °F 51% 29.56 in 10.0 mi WSW 21.9 mph 27.6 mph N/A   Mostly Cloudy
12:55 PM 11.3 °F -5.5 °F -3.3 °F 52% 29.56 in 10.0 mi West 16.1 mph 27.6 mph N/A   Overcast
1:15 PM 12.0 °F -4.5 °F -2.0 °F 53% 29.54 in 10.0 mi West 16.1 mph 23.0 mph N/A   Overcast
1:35 PM 12.7 °F -4.6 °F -1.3 °F 54% 29.53 in 10.0 mi West 18.4 mph 23.0 mph N/A   Overcast
1:55 PM 13.1 °F -3.7 °F 0.5 °F 57% 29.52 in 10.0 mi West 17.3 mph 26.5 mph N/A   Overcast
2:15 PM 13.3 °F -2.4 °F 1.6 °F 60% 29.52 in 10.0 mi West 15.0 mph 24.2 mph N/A   Overcast
2:35 PM 13.3 °F -1.1 °F 2.8 °F 63% 29.51 in 7.0 mi WNW 12.7 mph - N/A   Overcast
2:55 PM 13.1 °F -3.7 °F 3.6 °F 66% 29.52 in 5.0 mi WNW 17.3 mph 27.6 mph N/A   Haze
3:15 PM 12.9 °F -5.3 °F 5.7 °F 73% 29.52 in 1.8 mi WNW 20.7 mph 27.6 mph N/A Snow Light Snow
3:35 PM 12.9 °F -4.4 °F 3.7 °F 67% 29.52 in 5.0 mi WNW 18.4 mph 23.0 mph N/A   Haze
3:55 PM 12.2 °F -6.7 °F 2.7 °F 66% 29.53 in 5.0 mi WNW 21.9 mph 26.5 mph N/A   Haze
4:15 PM 12.2 °F -7.5 °F -1.5 °F 54% 29.53 in 7.0 mi WNW 24.2 mph 29.9 mph N/A   Mostly Cloudy
4:35 PM 11.1 °F -7.2 °F -1.3 °F 57% 29.54 in 10.0 mi WNW 19.6 mph 27.6 mph N/A   Scattered Clouds
4:55 PM 11.1 °F -10.0 °F 0.3 °F 62% 29.56 in 5.0 mi NW 27.6 mph 34.5 mph N/A   Haze
5:15 PM 10.9 °F -7.5 °F 0.3 °F 62% 29.57 in 7.0 mi NW 19.6 mph 31.1 mph N/A   Overcast
5:35 PM 9.3 °F -9.1 °F 1.9 °F 72% 29.58 in 3.0 mi NW 18.4 mph 23.0 mph N/A Snow Light Snow
5:55 PM 8.6 °F -9.5 °F -0.2 °F 67% 29.59 in 5.0 mi NW 17.3 mph 24.2 mph N/A   Haze
6:15 PM 8.4 °F -10.8 °F -0.9 °F 66% 29.61 in 5.0 mi NW 19.6 mph 26.5 mph N/A   Haze
6:35 PM 7.5 °F -12.4 °F 1.2 °F 75% 29.63 in 2.0 mi NW 20.7 mph 28.8 mph N/A Snow Light Snow
6:55 PM 6.6 °F -10.9 °F -5.6 °F 57% 29.64 in 4.0 mi NNW 15.0 mph 29.9 mph N/A   Haze
7:15 PM 4.6 °F -15.2 °F -8.9 °F 54% 29.66 in 2.5 mi NNW 18.4 mph 32.2 mph N/A   Haze
7:35 PM 3.6 °F -17.6 °F -10.1 °F 53% 29.69 in 3.0 mi NNW 20.7 mph 35.7 mph N/A   Haze
7:55 PM 2.3 °F -18.8 °F -12.8 °F 49% 29.70 in 3.0 mi NNW 19.6 mph 36.8 mph N/A   Haze
8:15 PM 0.9 °F -19.5 °F -13.7 °F 50% 29.72 in 5.0 mi NW 17.3 mph 29.9 mph N/A   Haze
8:35 PM 0.1 °F -21.6 °F -14.1 °F 51% 29.74 in 10.0 mi NW 19.6 mph 26.5 mph N/A   Clear
8:55 PM -0.8 °F -23.3 °F -15.0 °F 51% 29.76 in 10.0 mi NNW 20.7 mph 27.6 mph N/A   Clear
9:15 PM -1.7 °F -23.4 °F -14.8 °F 54% 29.78 in 7.0 mi NNW 18.4 mph 27.6 mph N/A   Clear
9:35 PM -2.7 °F -26.4 °F -15.9 °F 54% 29.79 in 10.0 mi NW 21.9 mph 25.3 mph N/A   Clear
9:55 PM -3.5 °F -25.7 °F -16.1 °F 55% 29.81 in 10.0 mi NNW 18.4 mph 23.0 mph N/A   Clear
10:15 PM -4.5 °F -27.1 °F -16.6 °F 56% 29.83 in 10.0 mi NNW 18.4 mph 26.5 mph N/A   Clear
10:35 PM -4.9 °F -27.0 °F -17.3 °F 55% 29.85 in 10.0 mi NW 17.3 mph 21.9 mph N/A   Clear
10:55 PM -5.8 °F -26.0 °F -17.9 °F 56% 29.86 in 10.0 mi NW 13.8 mph 27.6 mph N/A   Clear
11:15 PM -6.7 °F -28.7 °F -18.4 °F 57% 29.87 in 10.0 mi NW 16.1 mph - N/A   Clear
11:35 PM -7.2 °F -30.0 °F -18.6 °F 58% 29.89 in 10.0 mi NW 17.3 mph 29.9 mph N/A   Clear
11:55 PM -7.8 °F -30.7 °F -18.9 °F 58% 29.90 in 10.0 mi NW 17.3 mph 24.2 mph N/A   Clear